User: anonymous   Login
Location: Unspecified
(0.0000°N, 0.0000°E)
Time: 04:17:49
(UTC+00:00)
Language:

Tiangong 2 - Orbit

View from above orbital plane
View from above orbital plane
View from above satellite
View from above satellite

Ground track
Ground track

The orbit data is extracted from the following two-line orbital elements,

1 41765U 16057A   19109.85112532  .00004352  00000-0  54238-4 0  9999
2 41765  42.7849 314.8383 0008043 231.5538 198.6228 15.61279662147925
Epoch (UTC): 19 April 2019 20:25:37
Eccentricity: 0.0008043
inclination: 42.7849°
perigee height: 378 km
apogee height: 389 km
right ascension of ascending node: 314.8383°
argument of perigee: 231.5538°
revolutions per day: 15.61279662
mean anomaly at epoch: 198.6228°
orbit number at epoch: 14792

The dashed part of the orbit path shows where the satellite is in the earth's shadow,  

DLR